Weather History for KTVC - April, 2013

Change the Weather History Date:

Tuesday, April 23, 2013

  Actual Average Record
Temperature  
Mean Temperature 48 °F 46 °F  
Max Temperature 61 °F 57 °F 87 °F (1923)
Min Temperature 34 °F 35 °F 21 °F (1986)
Degree Days  
Heating Degree Days 17 19  
Month to date heating degree days 618 540  
Since 1 July heating degree days 6578 6942  
Cooling Degree Days 0 0  
Month to date cooling degree days 0 0  
Year to date cooling degree days 0 0  
Moisture  
Dew Point 35 °F    
Average Humidity 73    
Maximum Humidity 96    
Minimum Humidity 50    
Precipitation  
Precipitation 0.42 in 0.09 in 0.87 in (1944)
Month to date precipitation 4.14 2.16  
Year to date precipitation 9.25 8.34  
Sea Level Pressure  
Sea Level Pressure 29.94 in    
Wind  
Wind Speed 7 mph (NW)    
Max Wind Speed 22 mph    
Max Gust Speed 25 mph    
Visibility 6 miles    
Events Fog , Rain , Snow    
T = Trace of Precipitation, MM = Missing Value Source: NWS Daily Summary

Daily Weather History Graph

Daily Weather History Graph

Search for Another Location

Airport or City:

Trip Planner

Search our weather history database for the weather conditions in past years. The results will help you decide how hot, cold, wet, or windy it might be!

Date:

Astronomy

Apr. 23, 2013 Rise Set
Actual Time 6:44 AM EDT 8:37 PM EDT
Civil Twilight 6:12 AM EDT 9:09 PM EDT
Nautical Twilight 5:34 AM EDT 9:47 PM EDT
Astronomical Twilight 4:52 AM EDT 10:29 PM EDT
Moon 6:27 PM EDT (4/23) 5:17 AM EDT (4/23)
Length of Visible Light 14h 56m
Length of Day
13h 53m
Waxing Gibbous, 94% of the Moon is Illuminated
Apr 23
Waxing Gibbous
Apr 25
Full
May 2
Last Quarter
May 9
New
May 18
First Quarter

Hourly Weather History & Observations

Time (EDT) Temp. Windchill Dew Point Humidity Pressure Visibility Wind Dir Wind Speed Gust Speed Precip Events Conditions
12:53 AM 36.0 °F - 30.9 °F 82% 30.09 in 10.0 mi Calm Calm - N/A   Clear
1:53 AM 39.9 °F - 32.0 °F 73% 30.08 in 10.0 mi Calm Calm - N/A   Clear
2:53 AM 48.9 °F - 30.9 °F 50% 30.05 in 10.0 mi Calm Calm - N/A   Clear
3:53 AM 48.9 °F - 30.9 °F 50% 30.02 in 10.0 mi Variable 4.6 mph - N/A   Clear
4:53 AM 48.0 °F - 30.9 °F 52% 29.98 in 10.0 mi Calm Calm - N/A   Clear
5:53 AM 48.0 °F - 30.9 °F 52% 29.96 in 10.0 mi Variable 3.5 mph - N/A   Clear
6:53 AM 48.0 °F - 32.0 °F 54% 29.93 in 10.0 mi Variable 4.6 mph - N/A   Overcast
7:53 AM 48.9 °F - 32.0 °F 52% 29.92 in 10.0 mi Variable 4.6 mph - N/A   Overcast
8:53 AM 51.1 °F - 34.0 °F 52% 29.93 in 10.0 mi South 3.5 mph - 0.00 in Rain Light Rain
9:53 AM 51.1 °F - 39.0 °F 63% 29.92 in 10.0 mi South 4.6 mph - 0.00 in Rain Light Rain
10:53 AM 57.0 °F - 42.1 °F 57% 29.90 in 10.0 mi South 9.2 mph - 0.00 in   Overcast
11:53 AM 59.0 °F - 43.0 °F 55% 29.87 in 10.0 mi SSW 8.1 mph 16.1 mph N/A   Overcast
12:53 PM 59.0 °F - 44.1 °F 58% 29.88 in 10.0 mi SSW 9.2 mph 17.3 mph N/A   Overcast
1:53 PM 57.9 °F - 44.1 °F 60% 29.86 in 10.0 mi SW 8.1 mph 17.3 mph N/A   Overcast
2:28 PM 53.6 °F - 44.6 °F 72% 29.86 in 10.0 mi West 15.0 mph 24.2 mph N/A   Overcast
2:53 PM 50.0 °F - 44.1 °F 80% 29.88 in 4.0 mi West 17.3 mph - 0.00 in Rain Light Rain
3:13 PM 48.2 °F - 42.8 °F 82% 29.88 in 4.0 mi West 15.0 mph - 0.01 in Rain Light Rain
3:38 PM 46.4 °F 40.7 °F 42.8 °F 87% 29.89 in 3.0 mi West 12.7 mph - 0.05 in Rain Light Rain
3:53 PM 46.0 °F 40.6 °F 42.1 °F 86% 29.90 in 3.0 mi WNW 11.5 mph - 0.08 in Rain Rain
4:53 PM 41.0 °F 35.8 °F 37.0 °F 86% 29.91 in 4.0 mi NNW 8.1 mph - 0.08 in Rain Light Rain
5:53 PM 37.9 °F 31.5 °F 35.1 °F 89% 29.93 in 4.0 mi NNW 9.2 mph - 0.09 in Rain Rain
6:23 PM 37.4 °F 31.4 °F 33.8 °F 87% 29.92 in 2.5 mi NNW 8.1 mph - 0.05 in Rain , Snow Light Rain
6:30 PM 35.6 °F 28.0 °F 33.8 °F 93% 29.92 in 1.0 mi NW 10.4 mph - 0.06 in Rain , Snow Light Rain
6:42 PM 33.8 °F 28.6 °F 32.0 °F 93% 29.92 in 0.8 mi NNW 5.8 mph - 0.08 in Snow Light Snow
6:49 PM 33.8 °F 29.6 °F 32.0 °F 93% 29.92 in 0.5 mi NNW 4.6 mph - 0.09 in Fog , Snow Snow
6:53 PM 34.0 °F 28.8 °F 32.0 °F 92% 29.94 in 0.5 mi NNW 5.8 mph - 0.09 in Fog , Snow Snow
7:04 PM 33.8 °F 28.6 °F 32.0 °F 93% 29.93 in 1.0 mi North 5.8 mph - 0.02 in Snow Light Snow
7:13 PM 33.8 °F 28.6 °F 32.0 °F 93% 29.93 in 2.0 mi North 5.8 mph - 0.03 in Snow Light Snow
7:37 PM 33.8 °F 27.7 °F 32.0 °F 93% 29.93 in 1.5 mi North 6.9 mph - 0.04 in Snow Light Snow
7:53 PM 34.0 °F 28.8 °F 32.0 °F 92% 29.94 in 0.8 mi North 5.8 mph - 0.05 in Snow Light Snow
8:16 PM 33.8 °F 28.6 °F 32.0 °F 93% 29.92 in 2.0 mi North 5.8 mph - 0.01 in Snow Light Snow
8:53 PM 34.0 °F 27.2 °F 32.0 °F 92% 29.95 in 2.0 mi North 8.1 mph - 0.02 in Snow Light Snow
9:53 PM 34.0 °F 28.0 °F 30.9 °F 89% 29.96 in 2.0 mi North 6.9 mph - 0.01 in Snow Light Snow
10:07 PM 33.8 °F 27.7 °F 30.2 °F 87% 29.95 in 10.0 mi North 6.9 mph - 0.00 in   Overcast
10:45 PM 35.6 °F 29.2 °F 30.2 °F 81% 29.95 in 10.0 mi NNW 8.1 mph - 0.00 in   Overcast
10:53 PM 35.1 °F 30.1 °F 30.9 °F 85% 29.96 in 9.0 mi NNW 5.8 mph - 0.00 in Snow Light Snow
11:53 PM 35.1 °F 27.9 °F 30.9 °F 85% 29.95 in 10.0 mi NNW 9.2 mph - 0.00 in   Overcast